User: anonymous   Login
Location: *
(46.3500°N, 10.9000°E)
Time: 10:58:24
(UTC+00:00)
Language:

Cosmos 921 Rocket - Orbit

View from above orbital plane
View from above orbital plane
View from above satellite
View from above satellite

Ground track
Ground track

The orbit data is extracted from the following two-line orbital elements,

1 10096U 77055B   20184.70989347  .00000019  00000-0  42433-5 0  9993
2 10096  75.8327 185.1056 0043578 255.3701 104.2656 14.88706079327631
Epoch (UTC): 02 July 2020 17:02:14
Eccentricity: 0.0043578
inclination: 75.8327°
perigee height: 571 km
apogee height: 632 km
right ascension of ascending node: 185.1056°
argument of perigee: 255.3701°
revolutions per day: 14.88706079
mean anomaly at epoch: 104.2656°
orbit number at epoch: 32763

The dashed part of the orbit path shows where the satellite is in the earth's shadow,  

DLR